London, United Kingdom

10:20 PM BST on July 26, 2017 (GMT +0100)
Heathrow

Weather History for EGLL - October, 2013

Change the Weather History Date:

Saturday, October 5, 2013

  Actual Average Record
Temperature  
Mean Temperature 60 °F -  
Max Temperature 66 °F 57 °F 68 °F (2001)
Min Temperature 55 °F 45 °F 39 °F (1999)
Degree Days  
Heating Degree Days 4    
Growing Degree Days 10 (Base 50)    
Moisture  
Dew Point 55 °F    
Average Humidity 84    
Maximum Humidity 100    
Minimum Humidity 58    
Precipitation  
Precipitation 0.00 in - - ()
Sea Level Pressure  
Sea Level Pressure 30.12 in    
Wind  
Wind Speed 5 mph ()    
Max Wind Speed 8 mph    
Max Gust Speed -    
Visibility 6.7 miles    
Events Rain    
Averages and records for this station are not official NWS values.
T = Trace of Precipitation, MM = Missing Value Source: Averaged Metar Reports

Daily Weather History Graph

Daily Weather History Graph

Search for Another Location

Airport or City:

Trip Planner

Search our weather history database for the weather conditions in past years. The results will help you decide how hot, cold, wet, or windy it might be!

Date:

Astronomy

Oct. 05, 2013 Rise Set
Actual Time 7:09 AM BST 6:30 PM BST
Civil Twilight 6:35 AM BST 7:03 PM BST
Nautical Twilight 5:57 AM BST 7:42 PM BST
Astronomical Twilight 5:17 AM BST 8:21 PM BST
Moon 7:39 AM BST (10/5) 6:30 PM BST (10/5)
Length of Visible Light 12h 27m
Length of Day
11h 21m
New Moon, 0% of the Moon is Illuminated
Oct 5
New Moon
Oct 12
First Quarter
Oct 19
Full
Oct 27
Last Quarter
Nov 3
New

Hourly Weather History & Observations

Time (BST) Temp. Dew Point Humidity Pressure Visibility Wind Dir Wind Speed Gust Speed Precip Events Conditions
12:20 AM 59.0 °F 57.2 °F 94% 29.95 in 6.2 mi WSW 6.9 mph - N/A   Mostly Cloudy
12:50 AM 59 °F 57 °F 90% 29.96 in 17 mi SW 4.6 mph - - Rain Rain
12:50 AM 59.0 °F 57.2 °F 94% 29.95 in 6.2 mi West 5.8 mph - N/A   Mostly Cloudy
1:20 AM 59.0 °F 57.2 °F 94% 29.98 in 6.2 mi WSW 6.9 mph - N/A   Mostly Cloudy
1:50 AM 59.0 °F 57.2 °F 94% 29.98 in 6.2 mi West 6.9 mph - N/A   Overcast
2:20 AM 59.0 °F 55.4 °F 88% 29.98 in 6.2 mi West 6.9 mph - N/A   Unknown
2:50 AM 57.2 °F 55.4 °F 94% 29.98 in 6.2 mi West 6.9 mph - N/A   Partly Cloudy
3:20 AM 55.4 °F 53.6 °F 94% 29.98 in 6.2 mi West 8.1 mph - N/A   Partly Cloudy
3:50 AM 56 °F 54 °F 89% 30.00 in 8 mi West 5.8 mph - -   Mostly Cloudy
3:50 AM 55.4 °F 55.4 °F 100% 30.01 in 5.0 mi West 6.9 mph - N/A   Partly Cloudy
4:20 AM 55.4 °F 53.6 °F 94% 30.01 in 3.7 mi West 4.6 mph - N/A   Mostly Cloudy
4:50 AM 55.4 °F 55.4 °F 100% 30.01 in 3.7 mi West 5.8 mph - N/A   Scattered Clouds
5:20 AM 55.4 °F 55.4 °F 100% 30.01 in 3.7 mi West 5.8 mph - N/A   Partly Cloudy
5:50 AM 55.4 °F 55.4 °F 100% 30.04 in 5.0 mi West 4.6 mph - N/A   Partly Cloudy
6:20 AM 57.2 °F 55.4 °F 94% 30.04 in 5.0 mi WSW 4.6 mph - N/A   Partly Cloudy
6:50 AM 57.2 °F 55.4 °F 94% 30.04 in 5.0 mi West 5.8 mph - N/A   Overcast
7:20 AM 57.2 °F 55.4 °F 94% 30.06 in 5.0 mi West 5.8 mph - N/A   Partly Cloudy
7:50 AM 57.2 °F 55.4 °F 94% 30.06 in 5.0 mi West 4.6 mph - N/A   Partly Cloudy
8:20 AM 57.2 °F 57.2 °F 100% 30.09 in 5.6 mi WNW 5.8 mph - N/A   Scattered Clouds
8:50 AM 59.0 °F 57.2 °F 94% 30.09 in 6.2 mi West 6.9 mph - N/A   Scattered Clouds
9:20 AM 59.0 °F 57.2 °F 94% 30.09 in 6.2 mi West 5.8 mph - N/A   Scattered Clouds
9:50 AM 61 °F 56 °F 78% 30.11 in 14 mi WNW 5.8 mph - -   Scattered Clouds
9:50 AM 60.8 °F 57.2 °F 88% 30.09 in 6.2 mi WNW 5.8 mph - N/A   Partly Cloudy
10:20 AM 60.8 °F 57.2 °F 88% 30.12 in 6.2 mi NW 5.8 mph - N/A   Partly Cloudy
10:50 AM 62.6 °F 57.2 °F 82% 30.12 in 6.2 mi NW 5.8 mph - N/A   Partly Cloudy
11:20 AM 64.4 °F 57.2 °F 77% 30.12 in 6.2 mi NW 4.6 mph - N/A   Scattered Clouds
11:50 AM 64.4 °F 57.2 °F 77% 30.12 in 6.2 mi NNW 4.6 mph - N/A   Scattered Clouds
12:20 PM 66.2 °F 55.4 °F 68% 30.15 in 6.2 mi Variable 4.6 mph - N/A   Partly Cloudy
12:50 PM 65 °F 54 °F 59% 30.15 in 25 mi NW 2.3 mph - -   Mostly Cloudy
12:50 PM 64.4 °F 55.4 °F 73% 30.15 in 6.2 mi Variable 3.5 mph - N/A   Scattered Clouds
1:20 PM 64.4 °F 55.4 °F 73% 30.15 in 6.2 mi NW 4.6 mph - N/A   Partly Cloudy
1:50 PM 64.4 °F 55.4 °F 73% 30.15 in 6.2 mi WNW 4.6 mph - N/A   Partly Cloudy
2:20 PM 64.4 °F 55.4 °F 73% 30.15 in 6.2 mi NW 4.6 mph - N/A   Scattered Clouds
2:50 PM 64.4 °F 55.4 °F 73% 30.18 in 6.2 mi WNW 5.8 mph - N/A   Scattered Clouds
3:20 PM 64.4 °F 55.4 °F 73% 30.18 in 6.2 mi NW 4.6 mph - N/A   Partly Cloudy
3:50 PM 65 °F 54 °F 58% 30.19 in 22 mi NW 4.6 mph - -   Scattered Clouds
3:50 PM 64.4 °F 55.4 °F 73% 30.18 in 6.2 mi NW 4.6 mph - N/A   Partly Cloudy
4:20 PM 62.6 °F 55.4 °F 77% 30.18 in 6.2 mi WNW 4.6 mph - N/A   Partly Cloudy
4:50 PM 64.4 °F 53.6 °F 68% 30.18 in 6.2 mi Variable 3.5 mph - N/A   Partly Cloudy
5:20 PM 64.4 °F 53.6 °F 68% 30.18 in - NW 3.5 mph - N/A   Clear
5:50 PM 64.4 °F 53.6 °F 68% 30.18 in - Variable 3.5 mph - N/A   Clear
6:20 PM 62.6 °F 53.6 °F 72% 30.21 in - WNW 3.5 mph - N/A   Clear
6:50 PM 62 °F 53 °F 64% 30.22 in 19 mi West 2.3 mph - -   Scattered Clouds
6:50 PM 60.8 °F 53.6 °F 77% 30.21 in - West 3.5 mph - N/A   Clear
7:20 PM 59.0 °F 53.6 °F 82% 30.21 in - Variable 2.3 mph - N/A   Clear
7:50 PM 59.0 °F 53.6 °F 82% 30.21 in 6.2 mi North 3.5 mph - N/A   Partly Cloudy
8:20 PM 59.0 °F 53.6 °F 82% 30.24 in 6.2 mi North 2.3 mph - N/A   Scattered Clouds
8:50 PM 59.0 °F 55.4 °F 88% 30.24 in 6.2 mi North 3.5 mph - N/A   Mostly Cloudy
9:20 PM 57.2 °F 55.4 °F 94% 30.24 in 6.2 mi Variable 2.3 mph - N/A   Scattered Clouds
9:50 PM 60 °F 54 °F 73% 30.26 in 14 mi WNW 2.3 mph - -   Scattered Clouds
9:50 PM 59.0 °F 55.4 °F 88% 30.24 in 6.2 mi NW 2.3 mph - N/A   Partly Cloudy
10:20 PM 57.2 °F 53.6 °F 88% 30.24 in 6.2 mi NW 3.5 mph - N/A   Scattered Clouds
10:50 PM 57.2 °F 53.6 °F 88% 30.24 in 6.2 mi NW 3.5 mph - N/A   Partly Cloudy
11:20 PM 55.4 °F 53.6 °F 94% 30.24 in 6.2 mi NNW 3.5 mph - N/A   Scattered Clouds
11:50 PM 55.4 °F 53.6 °F 94% 30.27 in 6.2 mi NW 3.5 mph - N/A   Mostly Cloudy